This demonstration page uses our WeatherBlox Daily Observations layout. Learn more.

Left ArrowRight Arrow

Hourly Observations for June 7, 2021

Temp ( °F °C ) Dew Point ( °F °C ) Humidity (%) Winds ( mph kmh ) Pressure ( in mb ) Visibility ( mi km ) Precip ( " mm )
12:51 am 00:51 Clear 79 26.1 19 -7.2 10 10 NW 12 19 29.71 1006 10 16 N/A
1:51 am 01:51 Clear 73 22.8 18 -7.8 12 12 WNW 8 13 29.72 1006 10 16 N/A
2:51 am 02:51 Clear 69 20.6 18 -7.8 14 14 N N/A 29.72 1007 10 16 N/A
3:51 am 03:51 Clear 66 18.9 18 -7.8 16 16 ESE 6 9 29.75 1007 10 16 N/A
4:51 am 04:51 Clear 65 18.3 18 -7.8 16 16 ENE 5 7 29.77 1008 10 16 N/A
5:51 am 05:51 Sunny 66 18.9 18 -7.8 16 16 ESE 6 9 29.78 1008 10 16 N/A
6:51 am 06:51 Sunny 74 23.3 20 -6.7 13 13 ESE 3 6 29.78 1009 10 16 N/A
7:51 am 07:51 Sunny 81 27.2 22 -5.6 11 11 ESE 7 11 29.78 1008 10 16 N/A
8:51 am 08:51 Sunny 84 28.9 22 -5.6 10 10 SE 3 6 29.78 1008 10 16 N/A
9:51 am 09:51 Sunny 89 31.7 34 1.1 14 14 S 5 7 29.75 1008 10 16 N/A
10:51 am 10:51 Sunny 91 32.8 35 1.7 14 14 E 6 9 29.74 1007 10 16 N/A
11:51 am 11:51 Sunny 91 32.8 31 -0.6 12 12 undefined N/A 29.72 1007 10 16 N/A
12:51 pm 12:51 Sunny 94 34.4 30 -1.1 10 10 undefined N/A 29.70 1006 10 16 N/A
1:51 pm 13:51 Sunny 96 35.6 29 -1.7 9 9 undefined N/A 29.69 1005 10 16 N/A
2:51 pm 14:51 Sunny 95 35 26 -3.3 8 8 W 6 9 29.69 1005 10 16 N/A
3:51 pm 15:51 Sunny 97 36.1 24 -4.4 7 7 SW 7 11 29.66 1004 10 16 N/A
4:51 pm 16:51 Sunny 97 36.1 23 -5 7 7 WNW 9 15 29.65 1004 10 16 N/A
5:51 pm 17:51 Partly Cloudy 97 36.1 20 -6.7 6 6 WNW 16 26 29.64 1004 10 16 N/A
6:51 pm 18:51 Mostly Sunny 94 34.4 18 -7.8 6 6 WNW 13 20 29.65 1004 10 16 N/A
7:51 pm 19:51 Mostly Clear 89 31.7 20 -6.7 8 8 WNW 7 11 29.66 1004 10 16 N/A
8:51 pm 20:51 Clear 84 28.9 19 -7.2 9 9 NW 8 13 29.68 1005 10 16 N/A
9:51 pm 21:51 Clear 82 27.8 19 -7.2 9 9 NW 8 13 29.70 1006 10 16 N/A
10:51 pm 22:51 Clear 82 27.8 23 -5 11 11 NNW 12 19 29.70 1006 10 16 N/A
11:51 pm 23:51 Clear 83 28.3 24 -4.4 11 11 NNE 14 22 29.71 1006 10 16 N/A

Powered by AerisWeather